Weather History for Jamestown, NY

Change the Weather History Date:

Thursday, February 14, 2013

  Actual Average Record
Temperature  
Mean Temperature 26 °F -  
Max Temperature 33 °F 34 °F 62 °F (1990)
Min Temperature 19 °F 12 °F -24 °F (1979)
Degree Days  
Heating Degree Days 39    
Moisture  
Dew Point 24 °F    
Average Humidity 88    
Maximum Humidity 93    
Minimum Humidity 80    
Precipitation  
Precipitation 0.01 in - - ()
Sea Level Pressure  
Sea Level Pressure 29.81 in    
Wind  
Wind Speed 9 mph (SSW)    
Max Wind Speed 17 mph    
Max Gust Speed 21 mph    
Visibility 5 miles    
Events      
Averages and records for this station are not official NWS values.
T = Trace of Precipitation, MM = Missing Value Source: NWS Daily Summary

Daily Weather History Graph

Daily Weather History Graph

Search for Another Location

Airport:

Trip Planner

Search our weather history database for the weather conditions in past years. The results will help you decide how hot, cold, wet, or windy it might be!

Date:

Astronomy

Feb. 14, 2013 Rise Set
Actual Time 7:14 AM EST 5:48 PM EST
Civil Twilight 6:45 AM EST 6:17 PM EST
Nautical Twilight 6:12 AM EST 6:50 PM EST
Astronomical Twilight 5:40 AM EST 7:22 PM EST
Moon 9:09 AM EST (2/14) 10:56 PM EST (2/14)
Length of Visible Light 11h 32m
Length of Day
10h 34m
Waxing Crescent, 21% of the Moon is Illuminated
Feb 14
Waxing Crescent
Feb 17
First Quarter
Feb 25
Full
Mar 4
Last Quarter
Mar 11
New

Hourly Weather History & Observations

Time (EST) Temp. Windchill Dew Point Humidity Pressure Visibility Wind Dir Wind Speed Gust Speed Precip Events Conditions
12:15 AM 23.0 °F 13.9 °F 19.4 °F 86% 29.78 in 6.0 mi West 8.1 mph - N/A   Overcast
12:35 AM 21.2 °F 13.6 °F 19.4 °F 93% 29.78 in 6.0 mi WNW 5.8 mph - N/A   Overcast
12:55 AM 21.2 °F 14.9 °F 19.4 °F 93% 29.79 in 6.0 mi West 4.6 mph - N/A   Overcast
1:15 AM 21.2 °F 12.6 °F 19.4 °F 93% 29.79 in 7.0 mi West 6.9 mph - N/A   Overcast
1:35 AM 21.2 °F 13.6 °F 19.4 °F 93% 29.79 in 6.0 mi WSW 5.8 mph - N/A   Overcast
1:55 AM 21.2 °F 13.6 °F 17.6 °F 86% 29.80 in 6.0 mi West 5.8 mph - N/A   Overcast
2:15 AM 21.2 °F 16.4 °F 19.4 °F 93% 29.80 in 7.0 mi WSW 3.5 mph - N/A   Overcast
2:35 AM 21.2 °F 14.9 °F 19.4 °F 93% 29.80 in 7.0 mi SW 4.6 mph - N/A   Overcast
2:55 AM 21.2 °F 12.6 °F 19.4 °F 93% 29.80 in 7.0 mi SSW 6.9 mph - N/A   Overcast
3:15 AM 21.2 °F 12.6 °F 19.4 °F 93% 29.80 in 7.0 mi South 6.9 mph - N/A   Overcast
3:35 AM 21.2 °F 13.6 °F 17.6 °F 86% 29.80 in 7.0 mi SW 5.8 mph - N/A   Overcast
3:55 AM 21.2 °F 13.6 °F 17.6 °F 86% 29.81 in 8.0 mi SSW 5.8 mph - N/A   Overcast
4:15 AM 21.2 °F 13.6 °F 19.4 °F 93% 29.81 in 8.0 mi South 5.8 mph - N/A   Overcast
4:35 AM 21.2 °F 11.7 °F 19.4 °F 93% 29.81 in 8.0 mi South 8.1 mph - N/A   Overcast
4:55 AM 21.2 °F 12.6 °F 19.4 °F 93% 29.82 in 8.0 mi SSW 6.9 mph - N/A   Overcast
5:15 AM 21.2 °F 13.6 °F 17.6 °F 86% 29.82 in 8.0 mi SSW 5.8 mph - N/A   Overcast
5:35 AM 21.2 °F 12.6 °F 17.6 °F 86% 29.83 in 8.0 mi SSW 6.9 mph - N/A   Overcast
5:55 AM 21.2 °F 13.6 °F 17.6 °F 86% 29.83 in 8.0 mi South 5.8 mph - N/A   Overcast
6:15 AM 19.4 °F 10.4 °F 17.6 °F 93% 29.83 in 8.0 mi South 6.9 mph - N/A   Mostly Cloudy
6:35 AM 19.4 °F 10.4 °F 15.8 °F 86% 29.84 in 7.0 mi South 6.9 mph - N/A   Partly Cloudy
7:15 AM 19.4 °F 10.4 °F 17.6 °F 93% 29.85 in 5.0 mi South 6.9 mph - N/A   Clear
7:35 AM 19.4 °F 8.6 °F 17.6 °F 93% 29.85 in 5.0 mi South 9.2 mph - N/A   Partly Cloudy
7:55 AM 21.2 °F 10.1 °F 17.6 °F 86% 29.86 in 5.0 mi South 10.4 mph - N/A   Mostly Cloudy
8:15 AM 21.2 °F 10.9 °F 17.6 °F 86% 29.85 in 5.0 mi South 9.2 mph - N/A   Overcast
8:35 AM 21.2 °F 10.9 °F 19.4 °F 93% 29.86 in 5.0 mi South 9.2 mph - N/A   Overcast
8:55 AM 23.0 °F 13.1 °F 19.4 °F 86% 29.85 in 7.0 mi South 9.2 mph - N/A   Overcast
9:15 AM 24.8 °F 14.0 °F 19.4 °F 80% 29.85 in 7.0 mi SSW 11.5 mph - N/A   Overcast
9:35 AM 24.8 °F 12.9 °F 21.2 °F 86% 29.86 in 6.0 mi SSW 13.8 mph - N/A   Overcast
9:55 AM 26.6 °F 15.2 °F 21.2 °F 80% 29.85 in 5.0 mi South 13.8 mph 20.7 mph N/A   Overcast
10:15 AM 26.6 °F 15.7 °F 21.2 °F 80% 29.85 in 5.0 mi South 12.7 mph 16.1 mph N/A   Overcast
10:35 AM 26.6 °F 15.7 °F 21.2 °F 80% 29.85 in 5.0 mi South 12.7 mph 16.1 mph N/A   Overcast
10:55 AM 28.4 °F 18.0 °F 24.8 °F 86% 29.84 in 5.0 mi South 12.7 mph 17.3 mph N/A   Overcast
11:15 AM 28.4 °F 20.4 °F 23.0 °F 80% 29.84 in 6.0 mi SSW 8.1 mph 17.3 mph N/A   Overcast
11:35 AM 28.4 °F 19.1 °F 24.8 °F 86% 29.84 in 5.0 mi South 10.4 mph - N/A   Overcast
11:55 AM 30.2 °F 20.8 °F 24.8 °F 80% 29.83 in 5.0 mi SSW 11.5 mph 19.6 mph N/A   Overcast
12:15 PM 30.2 °F 20.8 °F 24.8 °F 80% 29.83 in 7.0 mi South 11.5 mph 16.1 mph N/A   Overcast
12:35 PM 30.2 °F 20.2 °F 26.6 °F 86% 29.82 in 5.0 mi South 12.7 mph 19.6 mph N/A   Overcast
12:55 PM 30.2 °F 20.8 °F 26.6 °F 86% 29.81 in 7.0 mi South 11.5 mph - N/A   Overcast
1:15 PM 30.2 °F 20.8 °F 26.6 °F 86% 29.81 in 6.0 mi South 11.5 mph - N/A   Overcast
1:35 PM 32.0 °F 22.1 °F 26.6 °F 80% 29.81 in 5.0 mi South 13.8 mph - N/A   Overcast
1:55 PM 32.0 °F 22.1 °F 26.6 °F 80% 29.80 in 5.0 mi South 13.8 mph 18.4 mph N/A   Overcast
2:15 PM 32.0 °F 22.5 °F 26.6 °F 80% 29.80 in 5.0 mi South 12.7 mph - N/A   Overcast
2:35 PM 32.0 °F 22.1 °F 28.4 °F 87% 29.79 in 2.0 mi South 13.8 mph 17.3 mph N/A   Overcast
2:55 PM 32.0 °F 23.0 °F 28.4 °F 87% 29.79 in 1.8 mi South 11.5 mph - N/A   Overcast
3:15 PM 32.0 °F 22.5 °F 28.4 °F 87% 29.79 in 2.0 mi South 12.7 mph 18.4 mph N/A   Overcast
3:35 PM 32.0 °F 22.5 °F 30.2 °F 93% 29.79 in 2.5 mi South 12.7 mph - N/A   Overcast
3:55 PM 32.0 °F 20.8 °F 28.4 °F 87% 29.78 in 2.0 mi SSW 17.3 mph - N/A   Overcast
4:15 PM 32.0 °F 22.5 °F 28.4 °F 87% 29.78 in 2.0 mi SSW 12.7 mph 18.4 mph N/A   Overcast
4:35 PM 32.0 °F 22.5 °F 30.2 °F 93% 29.78 in 1.2 mi South 12.7 mph 20.7 mph N/A   Overcast
4:55 PM 32.0 °F 23.0 °F 28.4 °F 87% 29.78 in 1.2 mi South 11.5 mph 17.3 mph N/A   Overcast
5:15 PM 32.0 °F 23.6 °F 30.2 °F 93% 29.78 in 1.5 mi SSW 10.4 mph 18.4 mph N/A   Overcast
5:35 PM 32.0 °F 23.0 °F 28.4 °F 87% 29.78 in 1.5 mi South 11.5 mph - N/A   Overcast
5:55 PM 32.0 °F 23.0 °F 30.2 °F 93% 29.79 in 2.0 mi South 11.5 mph - N/A   Overcast
6:15 PM 32.0 °F 22.5 °F 28.4 °F 87% 29.79 in 3.0 mi SSW 12.7 mph - N/A   Overcast
6:35 PM 32.0 °F 22.5 °F 30.2 °F 93% 29.79 in 2.5 mi South 12.7 mph 18.4 mph N/A   Overcast
6:55 PM 32.0 °F 23.0 °F 30.2 °F 93% 29.79 in 2.5 mi South 11.5 mph - N/A   Overcast
7:15 PM 32.0 °F 23.0 °F 30.2 °F 93% 29.79 in 1.5 mi South 11.5 mph 16.1 mph N/A   Overcast
7:35 PM 32.0 °F 23.0 °F 30.2 °F 93% 29.79 in 1.5 mi SSW 11.5 mph - N/A   Overcast
7:55 PM 32.0 °F 24.2 °F 30.2 °F 93% 29.81 in 1.5 mi SSW 9.2 mph - N/A   Overcast
8:15 PM 32.0 °F 23.6 °F 30.2 °F 93% 29.81 in 3.0 mi SSW 10.4 mph 17.3 mph N/A   Overcast
8:35 PM 32.0 °F 24.2 °F 30.2 °F 93% 29.80 in 3.0 mi SSW 9.2 mph - 0.01 in   Overcast
8:55 PM 33.8 °F 25.8 °F 30.2 °F 87% 29.80 in 6.0 mi SSW 10.4 mph - 0.01 in   Overcast
9:15 PM 33.8 °F 27.0 °F 30.2 °F 87% 29.79 in 9.0 mi South 8.1 mph - N/A   Overcast
9:35 PM 33.8 °F 27.0 °F 30.2 °F 87% 29.79 in 7.0 mi SSW 8.1 mph - N/A   Overcast
9:55 PM 33.8 °F 27.7 °F 32.0 °F 93% 29.78 in 7.0 mi SSW 6.9 mph - N/A   Overcast
10:15 PM 33.8 °F 27.7 °F 32.0 °F 93% 29.78 in 5.0 mi SSW 6.9 mph - N/A   Overcast
10:35 PM 33.8 °F 26.4 °F 30.2 °F 87% 29.78 in 3.0 mi SW 9.2 mph - N/A   Overcast
10:55 PM 33.8 °F 27.0 °F 32.0 °F 93% 29.78 in 7.0 mi SSW 8.1 mph - N/A   Overcast
11:15 PM 33.8 °F 25.8 °F 30.2 °F 87% 29.78 in 10.0 mi SW 10.4 mph 19.6 mph N/A   Overcast
11:35 PM 33.8 °F 24.8 °F 30.2 °F 87% 29.78 in 10.0 mi SW 12.7 mph 18.4 mph N/A   Overcast
11:55 PM 33.8 °F 23.2 °F 30.2 °F 87% 29.78 in 10.0 mi WSW 17.3 mph 20.7 mph N/A   Overcast